DW2363 Weather Reports


time (UTC)temp
C
wind
direction
speed
KPH
gust
KPH
rain 1hr
cm
rain 24hr
cm
rain mn
cm
humidity
%
barometer
mb
20260504050527 10 195 0.0 3.2 0.00 0.00 0.00 91 1013.9
20260504045527 10 195 1.6 4.8 0.00 0.00 0.00 91 1014.0
20260504045027 10 195 1.6 4.8 0.00 0.00 0.00 90 1014.0
20260504044528 10 195 0.0 4.8 0.00 0.00 0.00 90 1014.0
20260504044027 10 195 0.0 4.8 0.00 0.00 0.00 90 1013.8
20260504043527 10 195 1.6 6.4 0.00 0.00 0.00 90 1013.7
20260504043029 10 195 3.2 9.7 0.00 0.00 0.00 90 1013.7
20260504043025 10 195 4.8 9.7 0.00 0.00 0.00 90 1013.8
20260504042632 10 195 6.4 9.7 0.00 0.00 0.00 90 1013.8
20260504041522 10 195 6.4 9.7 0.00 0.00 0.00 90 1013.8
20260504041020 10 195 6.4 12.9 0.00 0.00 0.00 90 1013.6
20260504040521 10 198 8.0 12.9 0.00 0.00 0.00 90 1013.6
20260504040021 10 192 9.7 14.5 0.00 0.00 0.00 89 1013.4
20260504035521 10 207 9.7 14.5 0.00 0.00 0.00 89 1013.4
20260504035022 10 212 8.0 12.9 0.00 0.00 0.00 87 1013.4
20260504034521 10 209 6.4 11.3 0.00 0.00 0.00 87 1013.4
20260504034020 10 253 4.8 11.3 0.00 0.00 0.00 86 1013.2
20260504033523 10 269 4.8 12.9 0.00 0.00 0.00 85 1013.4
20260504033519 10 252 4.8 11.3 0.00 0.00 0.00 86 1013.2
20260504033126 11 272 4.8 12.9 0.00 0.00 0.00 85 1013.0
20260504032019 11 260 4.8 11.3 0.00 0.00 0.00 85 1013.0
20260504031519 11 267 6.4 12.9 0.00 0.00 0.00 85 1012.9
20260504031019 11 281 9.7 14.5 0.00 0.00 0.00 85 1012.9
20260504030519 11 311 8.0 14.5 0.00 0.00 0.00 84 1012.7
20260504030019 11 291 8.0 12.9 0.00 0.00 0.00 84 1012.8
20260504025519 11 294 4.8 12.9 0.00 0.00 0.00 84 1012.8
20260504025018 11 280 4.8 11.3 0.00 0.00 0.00 84 1012.8
20260504024517 11 221 6.4 11.3 0.00 0.00 0.00 83 1012.8
20260504024016 11 214 6.4 11.3 0.00 0.00 0.00 82 1012.8
20260504023517 11 219 6.4 11.3 0.00 0.00 0.00 83 1012.6
20260504023017 11 235 6.4 11.3 0.00 0.00 0.00 82 1012.6
20260504022521 11 232 4.8 11.3 0.00 0.00 0.00 81 1012.6
20260504022517 11 227 4.8 11.3 0.00 0.00 0.00 81 1012.6
20260504021517 11 243 6.4 11.3 0.00 0.00 0.00 82 1012.6
20260504021017 11 244 6.4 11.3 0.00 0.00 0.00 83 1012.5
20260504020521 11 205 6.4 8.0 0.00 0.00 0.00 84 1012.6
20260504020517 11 241 6.4 9.7 0.00 0.00 0.00 83 1012.5
20260504015520 11 207 9.7 14.5 0.00 0.00 0.00 85 1012.4
20260504015515 11 205 6.4 9.7 0.00 0.00 0.00 85 1012.6
20260504015015 11 205 8.0 14.5 0.00 0.00 0.00 85 1012.7
20260504014014 11 240 9.7 12.9 0.00 0.00 0.00 86 1012.4
20260504013515 11 218 11.3 14.5 0.00 0.00 0.00 86 1012.3
20260504013013 11 204 12.9 19.3 0.00 0.00 0.00 85 1012.3
20260504012513 11 196 14.5 19.3 0.00 0.00 0.00 85 1012.4
20260504012013 11 186 12.9 24.1 0.00 0.00 0.00 84 1012.5
20260504011512 11 184 12.9 24.1 0.00 0.00 0.00 85 1012.4
20260504011012 11 227 16.1 24.1 0.00 0.00 0.00 86 1012.2
20260504010510 11 207 17.7 24.1 0.00 0.00 0.00 86 1012.3
20260504010011 11 189 17.7 22.5 0.00 0.00 0.00 85 1012.4
20260504005511 11 188 16.1 25.7 0.00 0.00 0.00 84 1012.2
20260504005015 12 191 14.5 24.1 0.00 0.00 0.00 85 1012.3
20260504005011 12 181 16.1 25.7 0.00 0.00 0.00 84 1012.3
20260504004016 12 161 11.3 19.3 0.00 0.00 0.00 85 1012.1
20260504004011 12 184 11.3 20.9 0.00 0.00 0.00 84 1012.2
20260504003018 11 200 12.9 17.7 0.00 0.00 0.00 86 1012.2
20260504003011 11 205 11.3 19.3 0.00 0.00 0.00 86 1012.1
20260504002511 11 212 12.9 19.3 0.00 0.00 0.00 86 1012.2
20260504001511 11 205 12.9 19.3 0.00 0.00 0.00 86 1012.2
20260504001011 11 175 12.9 19.3 0.00 0.00 0.00 87 1012.2
20260504000511 11 194 11.3 17.7 0.00 0.00 0.00 86 1012.2
20260504000011 11 195 12.9 17.7 0.00 0.00 0.00 86 1012.2
20260503235511 11 213 12.9 17.7 0.00 0.00 0.00 85 1012.1
20260503235011 11 192 14.5 19.3 0.00 0.00 0.00 85 1012.1
20260503234511 11 200 12.9 19.3 0.00 0.00 0.00 86 1012.1
20260503234011 11 183 12.9 19.3 0.00 0.00 0.00 86 1012.1
20260503233511 11 185 14.5 22.5 0.00 0.00 0.00 85 1012.1
20260503233011 11 211 14.5 22.5 0.00 0.00 0.00 85 1012.0
20260503232511 11 208 14.5 22.5 0.00 0.00 0.00 86 1012.1
20260503232010 11 213 14.5 22.5 0.00 0.00 0.00 86 1012.2
20260503231511 11 183 14.5 20.9 0.00 0.00 0.00 86 1012.2
20260503231011 11 177 16.1 25.7 0.00 0.00 0.00 86 1012.2
20260503230512 11 184 16.1 25.7 0.00 0.00 0.00 85 1012.3
20260503230012 12 195 14.5 24.1 0.00 0.00 0.00 84 1012.4
20260503225511 12 219 14.5 22.5 0.00 0.00 0.00 84 1012.3
20260503225011 12 186 14.5 20.9 0.00 0.00 0.00 83 1012.4
20260503224515 12 192 12.9 19.3 0.00 0.00 0.00 81 1012.6
20260503224511 12 181 12.9 19.3 0.00 0.00 0.00 83 1012.4
20260503223511 12 195 11.3 19.3 0.00 0.00 0.00 81 1012.6
20260503223011 12 188 11.3 20.9 0.00 0.00 0.00 81 1012.7
20260503222511 12 178 12.9 20.9 0.00 0.00 0.00 83 1012.7
20260503222011 12 178 14.5 20.9 0.00 0.00 0.00 82 1012.7
20260503221511 12 187 11.3 20.9 0.00 0.00 0.00 83 1012.8
20260503221015 11 197 12.9 24.1 0.00 0.00 0.00 84 1012.8
20260503221011 12 214 11.3 20.9 0.00 0.00 0.00 84 1012.9
20260503220009 12 194 12.9 24.1 0.00 0.00 0.00 84 1012.9
20260503215507 12 211 14.5 25.7 0.00 0.00 0.00 84 1012.8
20260503215006 12 180 17.7 25.7 0.00 0.00 0.00 84 1012.9
20260503214506 12 202 16.1 25.7 0.00 0.00 0.00 83 1013.0
20260503214006 12 192 14.5 25.7 0.00 0.00 0.00 84 1013.0
20260503213506 12 194 16.1 25.7 0.00 0.00 0.00 85 1013.0
20260503213005 11 193 17.7 25.7 0.00 0.00 0.00 84 1012.9
20260503212504 11 199 16.1 25.7 0.00 0.00 0.00 84 1013.0
20260503212008 12 194 17.7 25.7 0.00 0.00 0.00 85 1013.0
20260503212004 12 205 16.1 25.7 0.00 0.00 0.00 84 1012.9
20260503211614 11 175 19.3 27.4 0.00 0.00 0.00 85 1013.0
20260503210505 11 194 19.3 27.4 0.00 0.00 0.00 86 1013.0
20260503210005 11 198 19.3 29.0 0.00 0.00 0.00 87 1013.0
20260503205508 11 186 20.9 29.0 0.00 0.00 0.00 86 1013.0
20260503205504 11 198 19.3 29.0 0.00 0.00 0.00 84 1013.0
20260503204504 11 190 20.9 29.0 0.00 0.00 0.00 86 1013.0
20260503204004 11 196 19.3 29.0 0.00 0.00 0.00 85 1013.0
20260503203502 12 191 17.7 27.4 0.00 0.00 0.00 82 1013.1
20260503203002 12 193 16.1 25.7 0.00 0.00 0.00 83 1013.2
20260503202506 12 205 12.9 25.7 0.00 0.00 0.00 82 1013.0
20260503202502 12 179 14.5 25.7 0.00 0.00 0.00 83 1013.0
20260503202111 12 190 14.5 25.7 0.00 0.00 0.00 82 1013.0
20260503201002 12 200 14.5 24.1 0.00 0.00 0.00 82 1013.0
20260503200502 12 200 12.9 22.5 0.00 0.00 0.00 84 1013.4
20260503200002 12 184 11.3 22.5 0.00 0.00 0.00 82 1013.2
20260503195501 12 192 11.3 22.5 0.00 0.00 0.00 85 1013.2
20260503195001 12 182 12.9 20.9 0.00 0.00 0.00 85 1013.2
20260503194500 12 151 12.9 24.1 0.00 0.00 0.00 87 1013.4
20260503194000 12 140 12.9 25.7 0.00 0.00 0.00 85 1013.5
20260503193500 12 176 12.9 25.7 0.00 0.00 0.00 86 1013.4
20260503193000 12 169 12.9 22.5 0.00 0.00 0.00 86 1013.4
20260503192459 12 187 12.9 20.9 0.00 0.00 0.00 87 1013.4
20260503192000 11 190 14.5 24.1 0.00 0.00 0.00 88 1013.4
20260503191500 12 151 12.9 24.1 0.00 0.00 0.00 90 1013.4
20260503190959 12 165 12.9 27.4 0.00 0.00 0.00 92 1013.4
20260503190500 11 161 12.9 27.4 0.00 0.00 0.00 94 1013.5
20260503185957 11 184 12.9 25.7 0.00 0.00 0.00 95 1013.6
20260503185457 11 195 12.9 25.7 0.00 0.00 0.00 96 1013.6
20260503185001 10 180 14.5 27.4 0.00 0.00 0.00 96 1013.6
20260503184957 10 152 14.5 25.7 0.00 0.00 0.00 96 1013.6
20260503184607 10 173 12.9 27.4 0.00 0.00 0.00 97 1013.6
20260503183458 10 155 12.9 22.5 0.00 0.00 0.00 97 1013.6
20260503182958 10 178 11.3 22.5 0.00 0.00 0.00 97 1013.7
20260503182458 10 162 11.3 22.5 0.00 0.00 0.00 97 1013.7
20260503181957 10 155 11.3 22.5 0.00 0.00 0.00 98 1013.8
20260503181458 10 168 9.7 22.5 0.00 0.00 0.00 98 1013.7
20260503180958 10 136 11.3 20.9 0.00 0.00 0.00 98 1013.7
20260503180458 10 98 11.3 22.5 0.00 0.00 0.00 98 1013.7
20260503175957 10 162 9.7 22.5 0.00 0.00 0.00 98 1013.7
20260503175458 9 175 9.7 16.1 0.00 0.00 0.00 98 1013.8
20260503175002 9 179 8.0 16.1 0.00 0.00 0.00 98 1013.8
20260503174958 9 188 9.7 16.1 0.00 0.00 0.00 98 1013.9
20260503173958 9 171 9.7 16.1 0.00 0.00 0.00 98 1013.9
20260503173458 9 171 11.3 16.1 0.00 0.00 0.00 98 1014.0
20260503172957 9 192 11.3 16.1 0.00 0.00 0.00 98 1013.9
20260503172457 9 189 12.9 17.7 0.00 0.00 0.00 98 1013.9
20260503171957 9 184 14.5 17.7 0.00 0.00 0.00 98 1013.9
20260503171458 9 188 14.5 19.3 0.00 0.00 0.00 98 1013.8
20260503170957 8 197 14.5 19.3 0.00 0.00 0.00 98 1013.7
20260503170457 9 192 12.9 17.7 0.00 0.00 0.00 98 1013.6
20260503150455 9 165 14.5 20.9 0.00 0.00 0.00 98 1012.7
20260503150449 9 171 14.5 17.7 0.00 0.00 0.00 98 1012.7
20260503130448 9 103 8.0 16.1 0.00 0.00 0.00 97 1011.6
20260503130444 9 98 9.7 16.1 0.00 0.00 0.00 97 1011.6
20260503110443 9 107 8.0 14.5 0.00 0.00 0.00 97 1012.0
20260503090432 10 153 3.2 16.1 0.00 0.00 0.00 96 1012.2
20260503081431 10 189 9.7 16.1 0.00 0.00 0.00 96 1012.3
20260503080928 10 188 9.7 16.1 0.00 0.00 0.00 95 1012.3
20260503080428 10 180 11.3 16.1 0.00 0.00 0.00 96 1012.3
20260503072423 11 204 9.7 12.9 0.00 0.00 0.00 93 1012.3
20260503071923 11 209 6.4 11.3 0.00 0.00 0.00 92 1012.3
20260503071424 12 211 3.2 12.9 0.00 0.00 0.00 91 1012.3
20260503070921 13 13 3.2 12.9 0.00 0.00 0.00 92 1012.2
20260503070422 13 20 8.0 12.9 0.00 0.00 0.00 91 1012.1